カタログに戻る

STARLINK-4117

運用中通信VLEO
NORAD 53169·PAYLOAD·🇺🇸 United States

打ち上げ Jul 17, 2022 から Cape Canaveral Space Force Station

Loading…

次のパス (今後24時間)

TLE

最新Source: CelesTrak SupGP

元期: Sep 15, 2026, 01:57 UTC

1 53169C 22083AP  26258.08173611 -.00009040  00000+0 -29074-3 0  2586
2 53169  53.1593   8.0449 0001033  90.6319   6.0560 15.31702481    12

AllMySatでSTARLINK-4117をリアルタイム追跡

Download on the App Store